Salinas, CA

3:16 PM PDT on May 24, 2017 (GMT -0700)
Salinas Municipal

Weather History for KSNS - March, 2014

Change the Weather History Date:

Wednesday, March 26, 2014

  Actual Average Record
Temperature  
Mean Temperature 57 °F 55 °F  
Max Temperature 63 °F 66 °F 90 °F (2015)
Min Temperature 50 °F 45 °F 30 °F (1936)
Degree Days  
Heating Degree Days 8 10  
Month to date heating degree days 155 272  
Since 1 July heating degree days 1587 2086  
Cooling Degree Days 0 0  
Month to date cooling degree days 1 0  
Year to date cooling degree days 3 0  
Growing Degree Days 6 (Base 50)    
Moisture  
Dew Point 50 °F    
Average Humidity 77    
Maximum Humidity 93    
Minimum Humidity 60    
Precipitation  
Precipitation 0.10 in 0.06 in 0.82 in (1985)
Month to date precipitation 0.58 1.98  
Year to date precipitation 3.78 7.07  
Since 1 July precipitation 4.72  
Sea Level Pressure  
Sea Level Pressure 29.93 in    
Wind  
Wind Speed 7 mph (SW)    
Max Wind Speed 23 mph    
Max Gust Speed 28 mph    
Visibility 9 miles    
Events Rain    
T = Trace of Precipitation, MM = Missing Value Source: NWS Daily Summary

Daily Weather History Graph

Daily Weather History Graph

Search for Another Location

Airport or City:

Trip Planner

Search our weather history database for the weather conditions in past years. The results will help you decide how hot, cold, wet, or windy it might be!

Date:

Astronomy

Mar. 26, 2014 Rise Set
Actual Time 7:01 AM PDT 7:23 PM PDT
Civil Twilight 6:35 AM PDT 7:49 PM PDT
Nautical Twilight 6:04 AM PDT 8:19 PM PDT
Astronomical Twilight 5:33 AM PDT 8:50 PM PDT
Moon 4:06 AM PDT (3/26) 3:14 PM PDT (3/26)
Length of Visible Light 13h 14m
Length of Day
12h 22m
Waning Crescent, 21% of the Moon is Illuminated
Mar 26
Waning Crescent
Mar 30
New
Apr 7
First Quarter
Apr 15
Full
Apr 22
Last Quarter

Hourly Weather History & Observations

Time (PDT) Temp. Dew Point Humidity Pressure Visibility Wind Dir Wind Speed Gust Speed Precip Events Conditions
12:53 AM 54.0 °F 50.0 °F 86% 29.92 in 10.0 mi Calm Calm - N/A   Mostly Cloudy
1:53 AM 55.0 °F 50.0 °F 83% 29.91 in 10.0 mi WSW 4.6 mph - 0.00 in Rain Light Rain
2:53 AM 54.0 °F 50.0 °F 86% 29.91 in 10.0 mi SW 5.8 mph - 0.00 in   Overcast
3:53 AM 54.0 °F 51.1 °F 90% 29.91 in 10.0 mi WSW 5.8 mph - N/A   Mostly Cloudy
4:53 AM 53.1 °F 48.9 °F 86% 29.90 in 10.0 mi Calm Calm - N/A   Clear
5:53 AM 54.0 °F 48.9 °F 83% 29.90 in 10.0 mi Calm Calm - N/A   Mostly Cloudy
6:53 AM 51.1 °F 46.9 °F 86% 29.90 in 10.0 mi Calm Calm - N/A   Mostly Cloudy
7:53 AM 51.1 °F 46.9 °F 86% 29.91 in 9.0 mi SE 5.8 mph - N/A   Overcast
8:53 AM 54.0 °F 50.0 °F 86% 29.90 in 10.0 mi ESE 6.9 mph - 0.01 in   Overcast
9:53 AM 55.0 °F 50.0 °F 83% 29.93 in 9.0 mi SSE 10.4 mph - 0.01 in Rain Light Rain
10:53 AM 55.0 °F 50.0 °F 83% 29.94 in 9.0 mi SE 8.1 mph - 0.02 in   Overcast
11:16 AM 53.6 °F 51.8 °F 94% 29.91 in 1.8 mi East 10.4 mph - 0.01 in Rain Rain
11:32 AM 55.4 °F 51.8 °F 88% 29.91 in 3.0 mi SE 9.2 mph - 0.03 in Rain Light Rain
11:46 AM 55.4 °F 51.8 °F 88% 29.91 in 10.0 mi ESE 10.4 mph - 0.03 in   Overcast
11:53 AM 55.0 °F 51.1 °F 86% 29.94 in 10.0 mi ESE 10.4 mph - 0.03 in Rain Light Rain
12:13 PM 55.4 °F 51.8 °F 88% 29.91 in 10.0 mi East 8.1 mph - 0.00 in Rain Light Rain
12:53 PM 57.9 °F 51.1 °F 78% 29.93 in 7.0 mi SSW 15.0 mph - 0.00 in Rain Light Rain
1:12 PM 57.2 °F 51.8 °F 82% 29.90 in 10.0 mi SSW 12.7 mph 21.9 mph 0.00 in   Overcast
1:38 PM 62.6 °F 51.8 °F 68% 29.90 in 10.0 mi SW 20.7 mph 26.5 mph 0.00 in   Overcast
1:46 PM 62.6 °F 51.8 °F 68% 29.89 in 10.0 mi SW 15.0 mph - 0.00 in   Mostly Cloudy
1:53 PM 62.1 °F 51.1 °F 67% 29.92 in 10.0 mi SW 16.1 mph - 0.00 in   Mostly Cloudy
2:06 PM 60.8 °F 50.0 °F 68% 29.89 in 10.0 mi WSW 15.0 mph - N/A   Mostly Cloudy
2:50 PM 60.8 °F 50.0 °F 68% 29.89 in 10.0 mi WSW 20.7 mph - N/A   Mostly Cloudy
2:53 PM 62.1 °F 48.9 °F 62% 29.92 in 10.0 mi WSW 18.4 mph - N/A   Mostly Cloudy
3:03 PM 60.8 °F 48.2 °F 63% 29.89 in 10.0 mi West 18.4 mph 24.2 mph N/A   Mostly Cloudy
3:50 PM 60.8 °F 48.2 °F 63% 29.90 in 10.0 mi West 17.3 mph - N/A   Mostly Cloudy
3:53 PM 60.1 °F 48.9 °F 67% 29.93 in 10.0 mi West 16.1 mph - N/A   Mostly Cloudy
4:53 PM 60.1 °F 48.9 °F 67% 29.94 in 10.0 mi WSW 13.8 mph 20.7 mph N/A   Mostly Cloudy
5:42 PM 59.0 °F 48.2 °F 67% 29.92 in 10.0 mi West 10.4 mph - N/A   Mostly Cloudy
5:53 PM 57.9 °F 48.9 °F 72% 29.95 in 9.0 mi West 15.0 mph 20.7 mph 0.00 in Rain Light Rain
6:53 PM 57.0 °F 50.0 °F 77% 29.95 in 10.0 mi West 6.9 mph - 0.02 in   Scattered Clouds
7:51 PM 55.4 °F 50.0 °F 82% 29.94 in 10.0 mi SW 8.1 mph - N/A   Overcast
7:53 PM 55.9 °F 50.0 °F 80% 29.97 in 10.0 mi WSW 8.1 mph - N/A   Overcast
8:02 PM 55.4 °F 50.0 °F 82% 29.95 in 6.0 mi WSW 9.2 mph - 0.00 in Rain Light Rain
8:53 PM 55.0 °F 51.1 °F 86% 29.99 in 10.0 mi West 4.6 mph - 0.01 in   Mostly Cloudy
9:23 PM 53.6 °F 50.0 °F 88% 29.97 in 10.0 mi Calm Calm - 0.00 in   Mostly Cloudy
9:53 PM 54.0 °F 50.0 °F 86% 30.01 in 10.0 mi Calm Calm - 0.00 in   Partly Cloudy
10:44 PM 53.6 °F 50.0 °F 88% 29.99 in 10.0 mi SSW 4.6 mph - N/A   Mostly Cloudy
10:51 PM 53.6 °F 50.0 °F 88% 29.99 in 10.0 mi SW 4.6 mph - N/A   Partly Cloudy
10:53 PM 53.1 °F 50.0 °F 89% 30.02 in 10.0 mi SW 5.8 mph - N/A   Scattered Clouds
11:53 PM 50.0 °F 46.9 °F 89% 30.04 in 10.0 mi Calm Calm - N/A   Clear